User: anonymous   Login
Location: Mentone
(34.5413°N, 85.5351°W)
Time: 22:11:28
(UTC-05:00)
Language:

Centaur AC-72 - Orbit

View from above orbital plane
View from above orbital plane
View from above satellite
View from above satellite

Ground track
Ground track

The orbit data is extracted from the following two-line orbital elements,

1 21907U 92013B   16238.52004005 -.00000248  00000-0  00000+0 0  9994
2 21907  19.6444   3.7929 6957194 339.6774   6.3638  2.25603547201608
Epoch (UTC): 25 August 2016 12:28:51
Eccentricity: 0.6957194
inclination: 19.6444°
perigee height: 1094 km
apogee height: 35263 km
right ascension of ascending node: 3.7929°
argument of perigee: 339.6774°
revolutions per day: 2.25603547
mean anomaly at epoch: 6.3638°
orbit number at epoch: 20160

The dashed part of the orbit path shows where the satellite is in the earth's shadow,  

DLR